Weather History for Asuncion, Paraguay

Change the Weather History Date:

Monday, October 8, 2012

  Actual Average Record
Temperature  
Mean Temperature 90 °F -  
Max Temperature 100 °F 85 °F 102 °F (2002)
Min Temperature 79 °F 66 °F 55 °F (2010)
Cooling Degree Days 24    
Growing Degree Days 40 (Base 50)    
Moisture  
Dew Point 68 °F    
Average Humidity 52    
Maximum Humidity 74    
Minimum Humidity 23    
Precipitation  
Precipitation 0.00 in 0.16 in - ()
Sea Level Pressure  
Sea Level Pressure 29.80 in    
Wind  
Wind Speed 9 mph ()    
Max Wind Speed 23 mph    
Max Gust Speed 23 mph    
Visibility 8.5 miles    
Events      
Averages and records for this station are not official NWS values.
T = Trace of Precipitation, MM = Missing Value Source: Averaged Metar Reports

Daily Weather History Graph

Daily Weather History Graph

Search for Another Location

Airport:

Trip Planner

Search our weather history database for the weather conditions in past years. The results will help you decide how hot, cold, wet, or windy it might be!

Date:

Astronomy

Oct. 08, 2012 Rise Set
Actual Time 6:22 AM PYST 6:53 PM PYST
Civil Twilight 5:59 AM PYST 7:16 PM PYST
Nautical Twilight 5:32 AM PYST 7:43 PM PYST
Astronomical Twilight 5:04 AM PYST 8:10 PM PYST
Moon 1:17 AM PYST (10/8) 12:25 PM PYST (10/8)
Length of Visible Light 13h 16m
Length of Day
12h 30m
Waning Gibbous, 47% of the Moon is Illuminated
Oct 8
Waning Gibbous
Oct 15
New
Oct 22
First Quarter
Oct 29
Full
Nov 6
Last Quarter

Hourly Weather History & Observations

Time (PYST) Temp. Heat Index Dew Point Humidity Pressure Visibility Wind Dir Wind Speed Gust Speed Precip Events Conditions
12:00 AM 83 °F - 66 °F 47% 29.83 in 12 mi NNE 9.2 mph - -   Clear
12:00 AM 82.4 °F 84.6 °F 66.2 °F 58% 29.80 in - NNE 9.2 mph - N/A   Clear
1:00 AM 82.4 °F 84.6 °F 66.2 °F 58% 29.80 in - NNE 9.2 mph - N/A   Clear
2:00 AM 80.6 °F 82.7 °F 66.2 °F 61% 29.80 in - North 9.2 mph - N/A   Clear
3:00 AM 80 °F - 67 °F 56% 29.82 in 12 mi North 6.9 mph - -   Clear
3:00 AM 80.6 °F 82.7 °F 66.2 °F 61% 29.80 in - North 6.9 mph - N/A   Clear
4:00 AM 80.6 °F 82.7 °F 66.2 °F 61% 29.80 in - NE 10.4 mph - N/A   Clear
5:00 AM 80.6 °F 82.7 °F 66.2 °F 61% 29.80 in - NE 10.4 mph - N/A   Clear
6:00 AM 80 °F - 67 °F 57% 29.83 in 12 mi NE 6.9 mph - -   Mostly Cloudy
6:00 AM 80.6 °F 83.2 °F 68.0 °F 65% 29.83 in - NE 6.9 mph - N/A   Clear
7:00 AM 80.6 °F 83.2 °F 68.0 °F 65% 29.83 in - North 4.6 mph - N/A   Clear
7:30 AM 80.6 °F 83.9 °F 69.8 °F 70% 29.86 in 5.0 mi Calm Calm - N/A   Unknown
8:00 AM 78.8 °F - 69.8 °F 74% 29.86 in 5.0 mi Calm Calm - N/A   Unknown
8:30 AM 78.8 °F - 69.8 °F 74% 29.86 in 5.0 mi NE 8.1 mph - N/A   Unknown
9:00 AM 81 °F - 70 °F 61% 29.88 in 12 mi NNE 6.9 mph - -   Mostly Cloudy
9:00 AM 80.6 °F 83.9 °F 69.8 °F 70% 29.86 in 5.0 mi NNE 6.9 mph - N/A   Unknown
9:30 AM 82.4 °F 87.2 °F 71.6 °F 70% 29.86 in 5.6 mi NNE 4.6 mph - N/A   Unknown
10:00 AM 87.8 °F 92.6 °F 69.8 °F 55% 29.86 in - North 11.5 mph - N/A   Clear
10:30 AM 89.6 °F 96.2 °F 71.6 °F 55% 29.86 in - North 13.8 mph - N/A   Clear
11:00 AM 91.4 °F 96.8 °F 69.8 °F 49% 29.86 in - North 13.8 mph - N/A   Clear
12:00 PM 95 °F - 68 °F 31% 29.85 in 12 mi North 17.3 mph - -  
12:00 PM 95.0 °F 99.5 °F 68.0 °F 41% 29.83 in - North 11.5 mph 23.0 mph N/A   Clear
1:00 PM 96.8 °F 101.8 °F 68.0 °F 39% 29.80 in - North 20.7 mph - N/A   Clear
2:00 PM 98.6 °F 102.8 °F 66.2 °F 35% 29.77 in 6.2 mi North 20.7 mph - N/A   Partly Cloudy
3:00 PM 100 °F - 65 °F 23% 29.76 in 12 mi NNW 23.0 mph - -   Scattered Clouds
3:00 PM 100.4 °F 103.6 °F 64.4 °F 31% 29.74 in 6.2 mi NNW 23.0 mph - N/A   Partly Cloudy
4:00 PM 100.4 °F 104.9 °F 66.2 °F 33% 29.71 in 6.2 mi NNW 16.1 mph - N/A   Partly Cloudy
5:00 PM 98.6 °F 102.8 °F 66.2 °F 35% 29.71 in - North 16.1 mph - N/A   Clear
6:00 PM 97 °F - 66 °F 27% 29.71 in 12 mi North 17.3 mph - -   Clear
6:00 PM 96.8 °F 100.7 °F 66.2 °F 37% 29.71 in - North 17.3 mph - N/A   Clear
7:00 PM 93.2 °F 98.8 °F 69.8 °F 46% 29.74 in 5.0 mi NNE 4.6 mph - N/A   Unknown
8:00 PM 91.4 °F 96.8 °F 69.8 °F 49% 29.74 in - NE 8.1 mph - N/A   Clear
9:00 PM 88 °F - 69 °F 44% 29.76 in 12 mi NE 4.6 mph - -   Clear
9:00 PM 87.8 °F 92.6 °F 69.8 °F 55% 29.74 in - NE 4.6 mph - N/A   Clear
10:00 PM 87.8 °F 92.6 °F 69.8 °F 55% 29.74 in - NE 4.6 mph - N/A   Clear
11:00 PM 86.0 °F 90.4 °F 69.8 °F 58% 29.74 in - NE 6.9 mph - N/A   Clear